This is the latest recevied weather packets stored in our database for station/object K2CCS. If no packets are shown the sender has not sent any weather packets the latest 10 day(s).
| Time | Temp. | Humidity | Pressure | Rain* | Wind** | Luminosity | Snow |
|---|---|---|---|---|---|---|---|
| 1777999063 | 25.56° C | 46% | 1008.2 hPa | 0 mm | - | 725 W/m² | - |
| 1777998762 | 25.56° C | 47% | 1008.3 hPa | 0 mm | - | 698 W/m² | - |
| 1777998458 | 25.56° C | 46% | 1008.5 hPa | 0 mm | - | 712 W/m² | - |
| 1777998155 | 25° C | 47% | 1008.5 hPa | 0 mm | - | 691 W/m² | - |
| 1777997852 | 25° C | 48% | 1008.6 hPa | 0 mm | - | 689 W/m² | - |
| 1777997550 | 25° C | 48% | 1008.6 hPa | 0 mm | - | 701 W/m² | - |
| 1777997247 | 25° C | 47% | 1009.1 hPa | 0 mm | - | 688 W/m² | - |
| 1777996945 | 25° C | 47% | 1009.1 hPa | 0 mm | - | 720 W/m² | - |
| 1777996641 | 24.44° C | 48% | 1009.2 hPa | 0 mm | - | 725 W/m² | - |
| 1777996337 | 24.44° C | 50% | 1009.2 hPa | 0 mm | - | 714 W/m² | - |
| 1777996034 | 23.89° C | 49% | 1009.2 hPa | 0 mm | - | 734 W/m² | - |
| 1777995730 | 23.33° C | 51% | 1009.3 hPa | 0 mm | - | 727 W/m² | - |
| 1777995426 | 23.33° C | 51% | 1009.6 hPa | 0 mm | - | 716 W/m² | - |
| 1777995124 | 22.78° C | 52% | 1009.5 hPa | 0 mm | - | 551 W/m² | - |
| 1777994821 | 22.78° C | 53% | 1009.7 hPa | 0 mm | - | 642 W/m² | - |
| 1777994516 | 22.78° C | 53% | 1009.8 hPa | 0 mm | - | 705 W/m² | - |
| 1777994212 | 21.67° C | 55% | 1009.8 hPa | 0 mm | - | 616 W/m² | - |
| 1777993910 | 21.67° C | 56% | 1009.9 hPa | 0 mm | - | 358 W/m² | - |
| 1777993605 | 21.11° C | 56% | 1010.1 hPa | 0 mm | - | 325 W/m² | - |
| 1777993303 | 21.11° C | 56% | 1010 hPa | 0 mm | - | 639 W/m² | - |
| 1777992998 | 20.56° C | 57% | 1010.2 hPa | 0 mm | - | 439 W/m² | - |
| 1777992697 | 20° C | 57% | 1010.2 hPa | 0 mm | - | 392 W/m² | - |
| 1777992394 | 20° C | 59% | 1010.2 hPa | 0 mm | - | 379 W/m² | - |
| 1777992092 | 20° C | 58% | 1010.4 hPa | 0 mm | - | 442 W/m² | - |
| 1777991789 | 19.44° C | 61% | 1010.7 hPa | 0 mm | - | 602 W/m² | - |
* Rain latest hour (hover to see other rain measurements)
** Current wind speed in m/s (hover to see current wind gust speed)